Time,TemperatureF,DewpointF,PressureIn,WindDirection,WindDirectionDegrees,WindSpeedMPH,WindSpeedGustMPH,Humidity,HourlyPrecipIn,Conditions,Clouds,dailyrainin,SoftwareType,DateUTC
2013-02-12 00:01:00,26.0,20.0,27.50,SSW,196,10.0,13.0,78,0.00,,,0.00,,2013-02-12 07:01:00,
2013-02-12 00:11:00,26.0,20.0,27.50,SSW,196,10.0,13.0,78,0.00,,,0.00,,2013-02-12 07:11:00,
2013-02-12 00:21:00,26.0,21.0,27.51,SSW,200,7.0,10.0,80,0.00,,,0.00,,2013-02-12 07:21:00,
2013-02-12 00:31:00,26.0,21.0,27.51,SSW,200,7.0,10.0,80,0.00,,,0.00,,2013-02-12 07:31:00,
2013-02-12 00:42:00,26.0,21.0,27.51,SSW,200,7.0,10.0,80,0.00,,,0.00,,2013-02-12 07:42:00,
2013-02-12 00:51:00,25.0,20.0,27.52,South,182,7.0,9.0,81,0.00,,,0.00,,2013-02-12 07:51:00,
2013-02-12 01:01:00,25.0,20.0,27.52,South,185,7.0,9.0,81,0.00,,,0.00,,2013-02-12 08:01:00,
2013-02-12 01:11:00,25.0,20.0,27.52,South,185,7.0,9.0,81,0.00,,,0.00,,2013-02-12 08:11:00,
2013-02-12 01:21:00,25.0,20.0,27.52,SSW,196,7.0,10.0,80,0.00,,,0.00,,2013-02-12 08:21:00,
2013-02-12 01:32:00,25.0,20.0,27.52,South,186,8.0,11.0,82,0.00,,,0.00,,2013-02-12 08:32:00,
2013-02-12 01:41:00,25.0,20.0,27.52,South,186,8.0,11.0,82,0.00,,,0.00,,2013-02-12 08:41:00,
2013-02-12 01:52:00,25.0,20.0,27.51,South,175,9.0,12.0,81,0.00,,,0.00,,2013-02-12 08:52:00,
2013-02-12 02:01:00,25.0,20.0,27.51,South,174,9.0,13.0,82,0.00,,,0.00,,2013-02-12 09:01:00,
2013-02-12 02:11:00,25.0,20.0,27.51,South,174,9.0,13.0,82,0.00,,,0.00,,2013-02-12 09:11:00,
2013-02-12 02:21:00,24.0,19.0,27.52,South,184,10.0,12.0,82,0.00,,,0.00,,2013-02-12 09:21:00,
2013-02-12 02:32:00,24.0,20.0,27.52,South,178,9.0,12.0,83,0.00,,,0.00,,2013-02-12 09:32:00,
2013-02-12 02:42:00,24.0,20.0,27.52,South,178,9.0,12.0,83,0.00,,,0.00,,2013-02-12 09:42:00,
2013-02-12 02:51:00,24.0,20.0,27.52,South,179,8.0,11.0,83,0.00,,,0.00,,2013-02-12 09:51:00,
2013-02-12 03:01:00,24.0,20.0,27.52,South,189,10.0,12.0,83,0.00,,,0.00,,2013-02-12 10:01:00,
2013-02-12 03:11:00,24.0,20.0,27.51,South,190,10.0,13.0,83,0.00,,,0.00,,2013-02-12 10:11:00,
2013-02-12 03:21:00,24.0,20.0,27.51,South,190,10.0,13.0,83,0.00,,,0.00,,2013-02-12 10:21:00,
2013-02-12 03:31:00,24.0,20.0,27.51,SSW,196,11.0,14.0,84,0.00,,,0.00,,2013-02-12 10:31:00,
2013-02-12 03:43:00,24.0,20.0,27.51,SSW,196,11.0,14.0,84,0.00,,,0.00,,2013-02-12 10:43:00,
2013-02-12 03:51:00,24.0,20.0,27.52,South,188,12.0,15.0,83,0.00,,,0.00,,2013-02-12 10:51:00,
2013-02-12 04:01:00,24.0,20.0,27.52,South,188,9.0,13.0,83,0.00,,,0.00,,2013-02-12 11:01:00,
2013-02-12 04:11:00,24.0,20.0,27.52,South,188,9.0,13.0,83,0.00,,,0.00,,2013-02-12 11:11:00,
2013-02-12 04:21:00,24.0,19.0,27.52,South,178,12.0,15.0,82,0.00,,,0.00,,2013-02-12 11:21:00,
2013-02-12 04:32:00,25.0,20.0,27.52,South,187,12.0,16.0,81,0.00,,,0.00,,2013-02-12 11:32:00,
2013-02-12 04:41:00,25.0,20.0,27.52,South,187,12.0,16.0,81,0.00,,,0.00,,2013-02-12 11:41:00,
2013-02-12 04:52:00,25.0,20.0,27.52,South,180,12.0,16.0,81,0.00,,,0.00,,2013-02-12 11:52:00,
2013-02-12 05:01:00,24.0,19.0,27.53,South,182,10.0,14.0,81,0.00,,,0.00,,2013-02-12 12:01:00,
2013-02-12 05:11:00,24.0,19.0,27.53,South,182,10.0,14.0,81,0.00,,,0.00,,2013-02-12 12:11:00,
2013-02-12 05:21:00,24.0,19.0,27.53,South,177,11.0,15.0,81,0.00,,,0.00,,2013-02-12 12:21:00,
2013-02-12 05:32:00,24.0,19.0,27.54,South,169,10.0,15.0,81,0.00,,,0.00,,2013-02-12 12:32:00,
2013-02-12 05:42:00,24.0,19.0,27.54,South,169,10.0,15.0,81,0.00,,,0.00,,2013-02-12 12:42:00,
2013-02-12 05:52:00,24.0,19.0,27.54,South,181,10.0,13.0,81,0.00,,,0.00,,2013-02-12 12:52:00,
2013-02-12 06:01:00,24.0,19.0,27.54,South,181,10.0,13.0,81,0.00,,,0.00,,2013-02-12 13:01:00,
2013-02-12 06:11:00,24.0,19.0,27.55,South,186,9.0,13.0,81,0.00,,,0.00,,2013-02-12 13:11:00,
2013-02-12 06:22:00,24.0,19.0,27.55,South,186,9.0,13.0,81,0.00,,,0.00,,2013-02-12 13:22:00,
2013-02-12 06:32:00,25.0,20.0,27.55,South,184,11.0,15.0,81,0.00,,,0.00,,2013-02-12 13:32:00,
2013-02-12 06:42:00,25.0,20.0,27.55,South,184,11.0,15.0,81,0.00,,,0.00,,2013-02-12 13:42:00,
2013-02-12 06:51:00,25.0,20.0,27.55,SSW,196,9.0,13.0,80,0.00,,,0.00,,2013-02-12 13:51:00,
2013-02-12 07:01:00,25.0,20.0,27.55,SSW,193,11.0,14.0,80,0.00,,,0.00,,2013-02-12 14:01:00,
2013-02-12 07:12:00,25.0,20.0,27.55,SSW,193,11.0,14.0,80,0.00,,,0.00,,2013-02-12 14:12:00,
2013-02-12 07:21:00,25.0,20.0,27.55,South,186,10.0,14.0,81,0.00,,,0.00,,2013-02-12 14:21:00,
2013-02-12 07:32:00,25.0,20.0,27.55,South,171,12.0,15.0,81,0.00,,,0.00,,2013-02-12 14:32:00,
2013-02-12 07:42:00,25.0,20.0,27.55,South,171,12.0,15.0,81,0.00,,,0.00,,2013-02-12 14:42:00,
2013-02-12 07:52:00,25.0,20.0,27.55,South,182,16.0,19.0,80,0.00,,,0.00,,2013-02-12 14:52:00,
2013-02-12 08:02:00,26.0,20.0,27.55,South,186,16.0,21.0,78,0.00,,,0.00,,2013-02-12 15:02:00,
2013-02-12 08:11:00,26.0,20.0,27.55,South,184,15.0,22.0,78,0.00,,,0.00,,2013-02-12 15:11:00,
2013-02-12 08:21:00,26.0,20.0,27.55,South,184,15.0,22.0,78,0.00,,,0.00,,2013-02-12 15:21:00,
2013-02-12 08:32:00,27.0,21.0,27.56,South,189,11.0,18.0,77,0.00,,,0.00,,2013-02-12 15:32:00,
2013-02-12 08:42:00,27.0,21.0,27.56,South,189,11.0,18.0,77,0.00,,,0.00,,2013-02-12 15:42:00,
2013-02-12 08:52:00,27.0,21.0,27.56,SSW,197,11.0,16.0,77,0.00,,,0.00,,2013-02-12 15:52:00,
2013-02-12 09:01:00,28.0,21.0,27.57,South,188,9.0,14.0,76,0.00,,,0.00,,2013-02-12 16:01:00,
2013-02-12 09:11:00,28.0,21.0,27.57,South,188,9.0,14.0,76,0.00,,,0.00,,2013-02-12 16:11:00,
2013-02-12 09:22:00,29.0,22.0,27.58,South,191,12.0,15.0,75,0.00,,,0.00,,2013-02-12 16:22:00,
2013-02-12 09:32:00,29.0,22.0,27.58,South,188,13.0,16.0,74,0.00,,,0.00,,2013-02-12 16:32:00,
2013-02-12 09:41:00,29.0,22.0,27.58,South,188,13.0,16.0,74,0.00,,,0.00,,2013-02-12 16:41:00,
2013-02-12 09:51:00,30.0,22.0,27.58,South,188,11.0,16.0,73,0.00,,,0.00,,2013-02-12 16:51:00,
2013-02-12 10:01:00,30.0,22.0,27.58,SSW,194,14.0,19.0,72,0.00,,,0.00,,2013-02-12 17:01:00,
2013-02-12 10:12:00,30.0,22.0,27.58,SSW,194,14.0,19.0,72,0.00,,,0.00,,2013-02-12 17:12:00,
2013-02-12 10:21:00,31.0,23.0,27.58,South,183,13.0,21.0,71,0.00,,,0.00,,2013-02-12 17:21:00,
2013-02-12 10:32:00,32.0,23.0,27.57,South,182,13.0,19.0,70,0.00,,,0.00,,2013-02-12 17:32:00,
2013-02-12 10:42:00,32.0,23.0,27.57,South,182,13.0,19.0,70,0.00,,,0.00,,2013-02-12 17:42:00,
2013-02-12 10:52:00,33.0,24.0,27.57,SSW,192,13.0,18.0,68,0.00,,,0.00,,2013-02-12 17:52:00,
2013-02-12 11:01:00,33.0,23.0,27.57,South,169,13.0,19.0,67,0.00,,,0.00,,2013-02-12 18:01:00,
2013-02-12 11:11:00,33.0,23.0,27.57,South,169,13.0,19.0,67,0.00,,,0.00,,2013-02-12 18:11:00,
2013-02-12 11:23:00,34.0,23.0,27.56,South,180,15.0,21.0,65,0.00,,,0.00,,2013-02-12 18:23:00,
2013-02-12 11:31:00,36.0,24.0,27.56,SSW,201,12.0,19.0,62,0.00,,,0.00,,2013-02-12 18:31:00,
2013-02-12 11:41:00,36.0,24.0,27.56,SSW,201,12.0,19.0,62,0.00,,,0.00,,2013-02-12 18:41:00,
2013-02-12 11:51:00,37.0,25.0,27.56,SW,219,11.0,15.0,61,0.00,,,0.00,,2013-02-12 18:51:00,
2013-02-12 12:02:00,38.0,25.0,27.55,SW,221,12.0,16.0,60,0.00,,,0.00,,2013-02-12 19:02:00,
2013-02-12 12:11:00,38.0,25.0,27.55,SW,221,12.0,16.0,60,0.00,,,0.00,,2013-02-12 19:11:00,
2013-02-12 12:21:00,38.0,25.0,27.55,SW,234,13.0,19.0,59,0.00,,,0.00,,2013-02-12 19:21:00,
2013-02-12 12:31:00,39.0,25.0,27.55,WSW,237,12.0,20.0,58,0.00,,,0.00,,2013-02-12 19:31:00,
2013-02-12 12:41:00,39.0,25.0,27.55,WSW,237,12.0,20.0,58,0.00,,,0.00,,2013-02-12 19:41:00,
2013-02-12 12:51:00,39.0,25.0,27.54,SW,224,11.0,21.0,58,0.00,,,0.00,,2013-02-12 19:51:00,
2013-02-12 13:01:00,40.0,26.0,27.54,WSW,238,10.0,19.0,56,0.00,,,0.00,,2013-02-12 20:01:00,
2013-02-12 13:11:00,40.0,26.0,27.54,WSW,238,10.0,19.0,56,0.00,,,0.00,,2013-02-12 20:11:00,
2013-02-12 13:21:00,41.0,27.0,27.54,SSW,210,11.0,16.0,56,0.00,,,0.00,,2013-02-12 20:21:00,
2013-02-12 13:31:00,41.0,26.0,27.53,West,261,10.0,19.0,54,0.00,,,0.00,,2013-02-12 20:31:00,
2013-02-12 13:41:00,41.0,26.0,27.53,West,261,10.0,19.0,54,0.00,,,0.00,,2013-02-12 20:41:00,
2013-02-12 13:52:00,41.0,26.0,27.52,SW,214,13.0,19.0,54,0.00,,,0.00,,2013-02-12 20:52:00,
2013-02-12 14:01:00,42.0,27.0,27.51,SSW,207,10.0,13.0,54,0.00,,,0.00,,2013-02-12 21:01:00,
2013-02-12 14:11:00,42.0,27.0,27.51,SSW,207,10.0,13.0,54,0.00,,,0.00,,2013-02-12 21:11:00,
2013-02-12 14:21:00,43.0,27.0,27.51,SW,230,11.0,16.0,53,0.00,,,0.00,,2013-02-12 21:21:00,
2013-02-12 14:31:00,43.0,27.0,27.50,WSW,251,8.0,21.0,52,0.00,,,0.00,,2013-02-12 21:31:00,
2013-02-12 14:42:00,44.0,28.0,27.49,SW,227,10.0,15.0,52,0.00,,,0.00,,2013-02-12 21:42:00,
2013-02-12 14:51:00,44.0,28.0,27.49,SW,227,10.0,15.0,52,0.00,,,0.00,,2013-02-12 21:51:00,
2013-02-12 15:01:00,44.0,27.0,27.48,WSW,252,9.0,14.0,51,0.00,,,0.00,,2013-02-12 22:01:00,
2013-02-12 15:12:00,44.0,27.0,27.48,WSW,252,9.0,14.0,51,0.00,,,0.00,,2013-02-12 22:12:00,
2013-02-12 15:21:00,45.0,27.0,27.49,WSW,252,10.0,19.0,48,0.00,,,0.00,,2013-02-12 22:21:00,
2013-02-12 15:32:00,45.0,27.0,27.48,SW,233,13.0,23.0,48,0.00,,,0.00,,2013-02-12 22:32:00,
2013-02-12 15:42:00,45.0,27.0,27.48,SW,233,13.0,23.0,48,0.00,,,0.00,,2013-02-12 22:42:00,
2013-02-12 15:51:00,45.0,27.0,27.48,SW,220,16.0,23.0,49,0.00,,,0.00,,2013-02-12 22:51:00,
2013-02-12 16:01:00,45.0,27.0,27.48,WSW,248,11.0,21.0,50,0.00,,,0.00,,2013-02-12 23:01:00,
2013-02-12 16:11:00,44.0,27.0,27.48,SW,230,11.0,22.0,50,0.00,,,0.00,,2013-02-12 23:11:00,
2013-02-12 16:21:00,44.0,27.0,27.48,SW,230,11.0,22.0,50,0.00,,,0.00,,2013-02-12 23:21:00,
2013-02-12 16:32:00,43.0,27.0,27.48,WSW,240,8.0,14.0,52,0.00,,,0.00,,2013-02-12 23:32:00,
2013-02-12 16:42:00,43.0,27.0,27.48,WSW,240,8.0,14.0,52,0.00,,,0.00,,2013-02-12 23:42:00,
2013-02-12 16:52:00,43.0,27.0,27.47,SW,234,7.0,14.0,52,0.00,,,0.00,,2013-02-12 23:52:00,
2013-02-12 17:02:00,43.0,28.0,27.47,WSW,242,4.0,10.0,54,0.00,,,0.00,,2013-02-13 00:02:00,
2013-02-12 17:11:00,43.0,28.0,27.47,WSW,242,4.0,10.0,54,0.00,,,0.00,,2013-02-13 00:11:00,
2013-02-12 17:21:00,42.0,27.0,27.47,WSW,244,5.0,9.0,56,0.00,,,0.00,,2013-02-13 00:21:00,
2013-02-12 17:32:00,41.0,27.0,27.47,SW,236,1.0,7.0,58,0.00,,,0.00,,2013-02-13 00:32:00,
2013-02-12 17:42:00,41.0,27.0,27.47,SW,236,1.0,7.0,58,0.00,,,0.00,,2013-02-13 00:42:00,
2013-02-12 17:52:00,40.0,27.0,27.47,SSW,212,3.0,6.0,60,0.00,,,0.00,,2013-02-13 00:52:00,
2013-02-12 18:01:00,40.0,28.0,27.48,SW,231,0.0,5.0,62,0.00,,,0.00,,2013-02-13 01:01:00,
2013-02-12 18:11:00,40.0,28.0,27.48,SW,231,0.0,5.0,62,0.00,,,0.00,,2013-02-13 01:11:00,
2013-02-12 18:21:00,39.0,27.0,27.49,WSW,255,0.0,4.0,63,0.00,,,0.00,,2013-02-13 01:21:00,
2013-02-12 18:31:00,39.0,27.0,27.49,WSW,255,0.0,4.0,63,0.00,,,0.00,,2013-02-13 01:31:00,
2013-02-12 18:42:00,39.0,27.0,27.49,WSW,255,0.0,4.0,63,0.00,,,0.00,,2013-02-13 01:42:00,
2013-02-12 18:51:00,38.0,28.0,27.49,West,265,3.0,10.0,66,0.00,,,0.00,,2013-02-13 01:51:00,
2013-02-12 19:01:00,38.0,28.0,27.48,West,268,0.0,5.0,66,0.00,,,0.00,,2013-02-13 02:01:00,
2013-02-12 19:11:00,38.0,28.0,27.48,West,268,0.0,5.0,66,0.00,,,0.00,,2013-02-13 02:11:00,
2013-02-12 19:21:00,37.0,27.0,27.49,SSW,209,3.0,6.0,68,0.00,,,0.00,,2013-02-13 02:21:00,
2013-02-12 19:31:00,37.0,27.0,27.49,SSW,202,3.0,6.0,68,0.00,,,0.00,,2013-02-13 02:31:00,
2013-02-12 19:41:00,37.0,27.0,27.49,SSW,202,3.0,6.0,68,0.00,,,0.00,,2013-02-13 02:41:00,
2013-02-12 19:52:00,37.0,27.0,27.48,SW,215,5.0,7.0,68,0.00,,,0.00,,2013-02-13 02:52:00,
2013-02-12 20:01:00,37.0,27.0,27.48,SW,215,0.0,5.0,68,0.00,,,0.00,,2013-02-13 03:01:00,
2013-02-12 20:11:00,37.0,27.0,27.47,South,183,1.0,4.0,68,0.00,,,0.00,,2013-02-13 03:11:00,
2013-02-12 20:21:00,37.0,27.0,27.47,South,183,1.0,4.0,68,0.00,,,0.00,,2013-02-13 03:21:00,
2013-02-12 20:32:00,36.0,28.0,27.46,South,173,3.0,6.0,71,0.00,,,0.00,,2013-02-13 03:32:00,
2013-02-12 20:42:00,36.0,28.0,27.46,South,173,3.0,6.0,71,0.00,,,0.00,,2013-02-13 03:42:00,
2013-02-12 20:51:00,36.0,28.0,27.45,SSE,168,3.0,6.0,71,0.00,,,0.00,,2013-02-13 03:51:00,
2013-02-12 21:01:00,35.0,27.0,27.45,SSE,161,2.0,4.0,72,0.00,,,0.00,,2013-02-13 04:01:00,
2013-02-12 21:11:00,35.0,27.0,27.45,SSE,161,2.0,4.0,72,0.00,,,0.00,,2013-02-13 04:11:00,
2013-02-12 21:21:00,33.0,26.0,27.44,SSE,160,1.0,3.0,75,0.00,,,0.00,,2013-02-13 04:21:00,
2013-02-12 21:32:00,33.0,26.0,27.44,SSE,160,1.0,3.0,75,0.00,,,0.00,,2013-02-13 04:32:00,
2013-02-12 21:41:00,33.0,26.0,27.44,SSE,160,1.0,3.0,75,0.00,,,0.00,,2013-02-13 04:41:00,
2013-02-12 21:51:00,32.0,26.0,27.44,South,189,4.0,7.0,79,0.00,,,0.00,,2013-02-13 04:51:00,
2013-02-12 22:01:00,31.0,26.0,27.43,South,188,4.0,6.0,82,0.00,,,0.00,,2013-02-13 05:01:00,
2013-02-12 22:11:00,32.0,27.0,27.42,SSW,200,4.0,8.0,83,0.00,,,0.00,,2013-02-13 05:11:00,
2013-02-12 22:22:00,32.0,27.0,27.42,SSW,200,4.0,8.0,83,0.00,,,0.00,,2013-02-13 05:22:00,
2013-02-12 22:31:00,32.0,27.0,27.42,SSW,198,0.0,6.0,83,0.00,,,0.00,,2013-02-13 05:31:00,
2013-02-12 22:42:00,32.0,27.0,27.42,SSW,198,0.0,6.0,83,0.00,,,0.00,,2013-02-13 05:42:00,
2013-02-12 22:52:00,32.0,27.0,27.42,SSW,198,0.0,0.0,83,0.00,,,0.00,,2013-02-13 05:52:00,
2013-02-12 23:02:00,31.0,27.0,27.42,SSW,195,5.0,7.0,84,0.00,,,0.00,,2013-02-13 06:02:00,
2013-02-12 23:11:00,31.0,27.0,27.42,South,188,7.0,10.0,84,0.00,,,0.00,,2013-02-13 06:11:00,
2013-02-12 23:21:00,31.0,27.0,27.42,South,188,7.0,10.0,84,0.00,,,0.00,,2013-02-13 06:21:00,
2013-02-12 23:32:00,31.0,27.0,27.41,South,182,8.0,10.0,84,0.00,,,0.00,,2013-02-13 06:32:00,
2013-02-12 23:42:00,31.0,27.0,27.41,South,182,8.0,10.0,84,0.00,,,0.00,,2013-02-13 06:42:00,
2013-02-12 23:51:00,32.0,27.0,27.41,South,177,8.0,11.0,82,0.00,,,0.00,,2013-02-13 06:51:00,